Change the Weather History Date:

Sunday, November 11, 2012

  Actual Average Record
Temperature  
Mean Temperature 64 °F -  
Max Temperature 75 °F 63 °F 78 °F (2003)
Min Temperature 53 °F 42 °F 28 °F (1996)
Degree Days  
Heating Degree Days 1    
Growing Degree Days 14 (Base 50)    
Moisture  
Dew Point 50 °F    
Average Humidity 66    
Maximum Humidity 82    
Minimum Humidity 46    
Precipitation  
Precipitation 0.00 in - - ()
Sea Level Pressure  
Sea Level Pressure 30.17 in    
Wind  
Wind Speed 11 mph (SSE)    
Max Wind Speed 21 mph    
Max Gust Speed 30 mph    
Visibility 10 miles    
Events      
Averages and records for this station are not official NWS values.
T = Trace of Precipitation, MM = Missing Value Source: NWS Daily Summary

Daily Weather History Graph

Daily Weather History Graph

Search for Another Location

Airport or City:

Trip Planner

Search our weather history database for the weather conditions in past years. The results will help you decide how hot, cold, wet, or windy it might be!

Date:

Astronomy

Nov. 11, 2012 Rise Set
Actual Time 6:22 AM CST 4:53 PM CST
Civil Twilight 5:56 AM CST 5:20 PM CST
Nautical Twilight 5:26 AM CST 5:49 PM CST
Astronomical Twilight 4:57 AM CST 6:19 PM CST
Moon 3:42 AM CST (11/11) 3:12 PM CST (11/11)
Length of Visible Light 11h 23m
Length of Day
10h 31m
Waning Crescent, 7% of the Moon is Illuminated
Nov 11
Waning Crescent
Nov 13
New
Nov 20
First Quarter
Nov 28
Full
Dec 6
Last Quarter

Hourly Weather History & Observations

Time (CST) Temp. Dew Point Humidity Pressure Visibility Wind Dir Wind Speed Gust Speed Precip Events Conditions
12:15 AM 55.4 °F 46.4 °F 72% 30.21 in 10.0 mi SE 9.2 mph - N/A   Clear
12:35 AM 55.4 °F 46.4 °F 72% 30.20 in 10.0 mi SSE 8.1 mph - N/A   Clear
12:55 AM 55.4 °F 46.4 °F 72% 30.20 in 10.0 mi SSE 10.4 mph - N/A   Clear
1:15 AM 55.4 °F 46.4 °F 72% 30.20 in 10.0 mi SSE 9.2 mph - N/A   Clear
1:35 AM 53.6 °F 46.4 °F 77% 30.20 in 10.0 mi SSE 6.9 mph - N/A   Clear
1:55 AM 53.6 °F 46.4 °F 77% 30.19 in 10.0 mi SSE 6.9 mph - N/A   Partly Cloudy
2:15 AM 53.6 °F 46.4 °F 77% 30.20 in 10.0 mi SSE 5.8 mph - N/A   Mostly Cloudy
2:35 AM 53.6 °F 46.4 °F 77% 30.20 in 10.0 mi SE 6.9 mph - N/A   Scattered Clouds
2:55 AM 53.6 °F 46.4 °F 77% 30.21 in 10.0 mi SSE 6.9 mph - N/A   Mostly Cloudy
3:15 AM 53.6 °F 46.4 °F 77% 30.20 in 10.0 mi SSE 6.9 mph - N/A   Mostly Cloudy
3:35 AM 53.6 °F 48.2 °F 82% 30.20 in 10.0 mi SE 6.9 mph - N/A   Mostly Cloudy
3:55 AM 53.6 °F 46.4 °F 77% 30.21 in 10.0 mi SE 6.9 mph - N/A   Mostly Cloudy
4:15 AM 55.4 °F 48.2 °F 77% 30.21 in 10.0 mi SE 9.2 mph - N/A   Overcast
4:35 AM 55.4 °F 48.2 °F 77% 30.21 in 10.0 mi SE 8.1 mph - N/A   Scattered Clouds
4:55 AM 53.6 °F 48.2 °F 82% 30.22 in 10.0 mi SE 10.4 mph - N/A   Clear
5:35 AM 55.4 °F 48.2 °F 77% 30.22 in 10.0 mi SSE 12.7 mph - N/A   Mostly Cloudy
5:50 AM 55.4 °F 39.2 °F 54% 30.22 in 10.0 mi SE 11.5 mph - N/A   Mostly Cloudy
6:50 AM 55.4 °F 46.4 °F 72% 30.23 in 10.0 mi SSE 11.5 mph - N/A   Scattered Clouds
7:50 AM 57.2 °F 46.4 °F 67% 30.24 in 10.0 mi SE 11.5 mph - N/A   Mostly Cloudy
9:50 AM 64.4 °F 48.2 °F 56% 30.24 in 10.0 mi SSE 11.5 mph 20.7 mph N/A   Mostly Cloudy
10:50 AM 69.8 °F 48.2 °F 46% 30.24 in 10.0 mi SSE 20.7 mph 29.9 mph N/A   Partly Cloudy
11:55 AM 71.6 °F 51.8 °F 50% 30.19 in 10.0 mi South 18.4 mph 25.3 mph N/A   Partly Cloudy
12:50 PM 73.4 °F 53.6 °F 50% 30.18 in 10.0 mi SSE 18.4 mph 25.3 mph N/A   Partly Cloudy
1:50 PM 75.2 °F 55.4 °F 50% 30.14 in 10.0 mi South 17.3 mph 23.0 mph N/A   Scattered Clouds
2:50 PM 73.4 °F 53.6 °F 50% 30.13 in 10.0 mi SSE 20.7 mph 25.3 mph N/A   Mostly Cloudy
3:45 PM 73.4 °F 53.6 °F 50% 30.13 in 10.0 mi SSE 20.7 mph 28.8 mph N/A   Mostly Cloudy
4:45 PM 69.8 °F 53.6 °F 56% 30.11 in 10.0 mi SSE 15.0 mph 20.7 mph N/A   Scattered Clouds
5:45 PM 69.8 °F 53.6 °F 56% 30.11 in 10.0 mi SSE 15.0 mph 21.9 mph N/A   Scattered Clouds
6:45 PM 68.0 °F 53.6 °F 60% 30.11 in 10.0 mi SSE 17.3 mph 23.0 mph N/A   Scattered Clouds
7:45 PM 66.2 °F 53.6 °F 64% 30.12 in 10.0 mi SSE 16.1 mph - N/A   Clear
7:55 PM 66.2 °F 53.6 °F 64% 30.13 in 10.0 mi SSE 15.0 mph 20.7 mph N/A   Clear
8:15 PM 66.2 °F 53.6 °F 64% 30.14 in 10.0 mi South 13.8 mph - N/A   Clear
8:35 PM 66.2 °F 53.6 °F 64% 30.13 in 10.0 mi SSE 16.1 mph 20.7 mph N/A   Partly Cloudy
8:55 PM 66.2 °F 53.6 °F 64% 30.13 in 10.0 mi SSE 16.1 mph 25.3 mph N/A   Partly Cloudy
9:15 PM 66.2 °F 53.6 °F 64% 30.13 in 10.0 mi SSE 16.1 mph - N/A   Clear
9:35 PM 66.2 °F 53.6 °F 64% 30.11 in 10.0 mi SSE 18.4 mph 25.3 mph N/A   Partly Cloudy
9:55 PM 66.2 °F 53.6 °F 64% 30.14 in 10.0 mi South 15.0 mph 20.7 mph N/A   Mostly Cloudy
10:15 PM 64.4 °F 53.6 °F 68% 30.14 in 10.0 mi South 13.8 mph - N/A   Overcast
10:35 PM 66.2 °F 53.6 °F 64% 30.12 in 10.0 mi SSE 12.7 mph 19.6 mph N/A   Overcast
10:55 PM 66.2 °F 53.6 °F 64% 30.12 in 10.0 mi SSE 12.7 mph 20.7 mph N/A   Overcast
11:15 PM 66.2 °F 51.8 °F 60% 30.12 in 10.0 mi South 15.0 mph - N/A   Overcast
11:35 PM 64.4 °F 51.8 °F 64% 30.12 in 10.0 mi South 13.8 mph 19.6 mph N/A   Overcast
11:55 PM 64.4 °F 51.8 °F 64% 30.13 in 10.0 mi South 12.7 mph - N/A   Overcast